Location: New Town
(33.2710°N, 90.7534°W)
Time: 02:10:02
(UTC+00:00)

ISS - Pass Details

Date: 29 April 2021
Orbit: 417 x 422 km, 51.6° (Epoch: 18 May)

Event Time Altitude Azimuth Distance (km) Brightness Sun altitude
Exits shadow 09:14:36 27° 354° (N) 834 -2.0 -23.4°
Drops below altitude 10° 09:16:47 10° 28° (NNE) 1,502 -0.1 -23.1°
Sets 09:19:01 0° 38° (NE) 2,370 1.4 -22.7°
